Retour au catalogue

THEOS

ActifScienceSSO
NORAD 33396·PAYLOAD·🇹🇭 Thailand

Lancé Oct 1, 2008 depuis Dombarovsky

Loading…

Prochains Passages (prochaines 24 heures)

TLE

FraisSource: Space-Track

Époque: Sep 14, 2026, 14:07 UTC

1 33396U 08049A   26257.58832907 -.00000206  00000-0 -76606-4 0  9998
2 33396  98.5482 311.9300 0001330  87.6306 272.5023 14.20141807930658

Suivez THEOS en temps réel avec AllMySat

Download on the App Store